Location: Lugrin
(46.4033°N, 6.6674°E)
Time: 06:44:50
(UTC+00:00)

Okean 2 - Pass Details

Date: 18 September 2020
Orbit: 559 x 577 km, 82.5° (Epoch: 23 October)

Event Time Altitude Azimuth Distance (km) Brightness Sun altitude
Rises 18:28:14 0° 348° (NNW) 2,804 7.3 -9.4°
Reaches altitude 10° 18:30:27 10° 346° (NNW) 1,899 6.4 -9.7°
Maximum altitude 18:34:36 69° 264° (W) 622 3.8 -10.4°
Drops below altitude 10° 18:38:43 10° 181° (S) 1,876 5.9 -11.1°
Sets 18:40:54 0° 179° (S) 2,767 6.7 -11.5°
